Temperature
-0 -1 -2 -2 -3 -4 -4 -5 -5 -5 -6 -6 -6 -6 -6 -6 -6 -6 -6 -6 -7 -7 -7 -7 -7 -6 -5 -4 -3 -2 -0 1 1 2 3 5 7 9 10 12 13 14 14
-1 -2 -2 -3 -3 -4 -4 -5 -6 -6 -6 -7 -7 -7 -7 -6 -6 -7 -7 -7 -7 -8 -8 -8 -8 -7 -6 -5 -4 -3 -1 -0 1 2 3 4 5 7 9 11 12 13 14
-1 -2 -2 -3 -3 -4 -5 -5 -6 -6 -7 -7 -7 -7 -7 -7 -7 -7 -7 -8 -8 -8 -9 -9 -9 -8 -7 -6 -5 -3 -2 -1 0 1 2 3 4 6 7 9 11 12 13
-1 -2 -2 -3 -4 -4 -5 -6 -6 -7 -7 -8 -8 -8 -8 -8 -8 -8 -8 -8 -8 -9 -9 -9 -9 -9 -8 -7 -6 -4 -3 -1 -0 1 2 3 3 5 6 8 10 12 13
-2 -2 -2 -3 -4 -4 -5 -6 -7 -8 -8 -8 -9 -9 -9 -8 -8 -8 -8 -8 -9 -9 -9 -10 -10 -10 -9 -8 -7 -5 -3 -2 -1 1 2 2 3 4 5 7 9 11 12
-2 -2 -3 -3 -4 -5 -6 -7 -8 -8 -9 -9 -10 -10 -9 -8 -8 -8 -9 -9 -9 -9 -9 -10 -10 -10 -10 -9 -7 -6 -4 -3 -1 0 1 2 3 3 4 6 8 10 11
-2 -2 -3 -4 -5 -5 -7 -8 -8 -9 -9 -10 -10 -10 -10 -9 -9 -9 -9 -9 -9 -9 -10 -10 -10 -10 -10 -9 -8 -7 -5 -4 -2 -0 1 1 2 3 3 5 6 8 10
-2 -3 -3 -4 -5 -6 -7 -8 -9 -9 -10 -10 -11 -11 -11 -11 -10 -9 -9 -10 -10 -10 -10 -10 -10 -10 -10 -9 -9 -8 -7 -5 -3 -2 -0 1 1 2 3 4 5 7 9
-2 -3 -4 -4 -5 -7 -8 -9 -9 -10 -10 -11 -11 -11 -12 -11 -11 -11 -10 -10 -10 -10 -10 -10 -10 -10 -10 -9 -9 -8 -7 -6 -4 -3 -2 -1 1 1 2 3 4 6 8
-2 -3 -4 -5 -6 -7 -8 -9 -9 -10 -11 -11 -11 -11 -11 -12 -12 -12 -11 -11 -11 -11 -10 -10 -10 -10 -9 -9 -9 -8 -7 -6 -5 -4 -3 -2 -0 1 2 3 4 5 7
-2 -3 -4 -5 -6 -7 -8 -9 -10 -10 -11 -11 -11 -11 -11 -11 -12 -12 -12 -12 -11 -11 -11 -10 -10 -10 -10 -9 -9 -8 -7 -6 -5 -4 -3 -2 -1 -0 1 2 3 4 6
-3 -3 -4 -5 -6 -7 -8 -9 -10 -10 -11 -11 -11 -11 -11 -11 -12 -12 -13 -13 -12 -11 -11 -11 -10 -10 -10 -9 -9 -8 -7 -6 -6 -5 -4 -3 -2 -1 0 2 3 4 5
-2 -3 -4 -5 -6 -7 -8 -9 -9 -10 -11 -11 -11 -11 -11 -11 -11 -12 -13 -13 -13 -12 -12 -11 -10 -10 -10 -10 -9 -8 -8 -7 -6 -5 -4 -3 -3 -2 -1 0 2 3 5
-3 -3 -4 -5 -6 -7 -8 -9 -9 -10 -10 -10 -11 -11 -11 -11 -11 -12 -12 -13 -13 -13 -12 -11 -11 -10 -10 -10 -9 -9 -8 -7 -7 -6 -5 -4 -3 -2 -2 -1 0 2 4
-3 -4 -5 -5 -6 -7 -8 -9 -9 -9 -10 -10 -10 -10 -10 -10 -11 -11 -12 -12 -13 -13 -12 -12 -11 -10 -10 -10 -10 -9 -9 -8 -7 -6 -5 -4 -4 -3 -2 -2 -1 1 3
-3 -4 -5 -6 -6 -7 -8 -8 -9 -9 -9 -9 -9 -9 -10 -10 -11 -11 -11 -12 -12 -13 -13 -12 -11 -11 -10 -10 -10 -10 -9 -8 -7 -6 -6 -5 -4 -4 -3 -2 -1 -0 2
-3 -4 -5 -5 -6 -7 -8 -8 -8 -9 -9 -9 -9 -9 -10 -10 -11 -11 -11 -12 -12 -12 -13 -12 -11 -11 -10 -10 -10 -9 -9 -8 -7 -6 -6 -5 -5 -4 -4 -3 -2 -1 1
-3 -4 -5 -5 -6 -7 -8 -8 -8 -8 -9 -9 -9 -9 -10 -10 -11 -11 -11 -11 -12 -12 -12 -12 -11 -11 -11 -10 -10 -10 -10 -9 -8 -7 -6 -5 -5 -4 -4 -3 -2 -1 1
-3 -4 -5 -5 -6 -7 -7 -8 -8 -8 -8 -8 -9 -9 -10 -10 -11 -11 -11 -11 -11 -11 -11 -12 -11 -11 -11 -11 -11 -10 -10 -9 -8 -7 -6 -5 -5 -4 -3 -3 -2 -1 1
-3 -4 -4 -5 -6 -6 -7 -7 -8 -8 -8 -8 -9 -9 -10 -10 -11 -11 -11 -11 -11 -11 -11 -11 -11 -11 -11 -11 -11 -11 -11 -9 -8 -7 -6 -5 -5 -4 -3 -2 -1 0 1
-3 -4 -4 -5 -5 -6 -7 -7 -8 -8 -8 -8 -9 -9 -10 -11 -11 -11 -11 -11 -11 -11 -11 -11 -11 -12 -12 -12 -12 -11 -11 -10 -9 -7 -6 -5 -5 -4 -3 -2 -1 -0 1
-3 -4 -4 -5 -5 -6 -6 -8 -8 -8 -8 -8 -9 -9 -10 -10 -11 -11 -11 -11 -11 -11 -11 -11 -11 -12 -12 -12 -12 -12 -12 -11 -10 -8 -7 -6 -5 -4 -2 -1 -0 1 2
-3 -4 -4 -4 -5 -5 -6 -8 -8 -8 -8 -8 -9 -9 -10 -10 -11 -11 -10 -10 -11 -11 -11 -11 -12 -12 -12 -12 -12 -12 -11 -11 -11 -9 -9 -6 -4 -4 -2 -1 -0 1 2
-3 -3 -4 -4 -5 -5 -6 -8 -8 -8 -8 -9 -9 -9 -10 -10 -10 -10 -10 -10 -11 -11 -11 -12 -12 -12 -12 -12 -12 -11 -11 -11 -10 -9 -9 -7 -4 -3 -2 -2 -0 1 2
-3 -3 -4 -4 -5 -5 -6 -7 -8 -9 -9 -9 -9 -9 -10 -10 -10 -9 -10 -11 -11 -11 -12 -12 -12 -12 -12 -12 -12 -11 -11 -11 -11 -9 -8 -8 -5 -3 -2 -1 -0 1 2
-3 -3 -4 -4 -5 -5 -6 -7 -9 -9 -9 -9 -9 -9 -10 -10 -10 -10 -10 -11 -11 -11 -12 -12 -12 -12 -12 -12 -12 -12 -12 -11 -11 -10 -7 -7 -5 -4 -2 -0 0 1 2
Wind_Speed
2 3 5 7 9 10 10 11 13 14 14 14 15 17 18 20 21 21 22 29 32 33 33 34 34 35 35 36 36 36 35 34 33 32 31 30 29 27 25 24 23 22 22
1 2 4 6 9 10 10 11 13 12 11 12 13 16 18 19 19 21 23 26 29 31 33 33 34 34 35 35 36 37 36 35 34 33 32 31 29 28 26 24 23 22 21
4 4 4 6 9 10 11 12 12 10 11 12 11 15 17 17 19 21 23 23 24 28 31 32 33 34 35 36 36 36 37 36 35 34 33 31 29 28 26 25 23 22 21
5 5 5 7 9 10 10 9 7 5 6 6 7 10 14 16 19 21 22 22 23 23 27 32 34 35 35 36 36 36 36 36 35 35 33 31 29 28 27 26 24 23 22
7 6 7 8 9 9 8 9 6 4 7 8 8 7 8 12 16 20 20 22 22 23 24 28 32 33 34 34 35 35 34 34 34 34 32 30 29 28 27 26 25 23 23
8 7 7 8 8 7 5 5 6 6 6 7 10 10 9 11 13 12 16 19 21 23 25 25 26 27 31 32 33 34 33 32 32 32 31 29 28 28 27 27 26 24 23
8 8 7 8 7 5 5 6 5 6 5 5 6 10 10 9 9 8 11 13 17 21 22 23 23 22 23 28 30 31 31 30 30 29 27 27 27 27 27 27 26 25 23
8 7 7 7 7 5 5 6 5 4 5 5 5 10 9 10 7 12 9 10 11 15 17 21 22 23 22 21 25 30 30 29 28 26 25 25 25 26 26 27 26 25 24
8 8 8 8 8 5 5 6 6 6 6 5 4 5 8 10 14 10 12 11 9 10 11 16 20 21 22 20 21 25 28 28 27 26 24 24 24 25 26 26 26 26 25
8 8 9 9 8 7 5 6 6 6 6 8 6 5 7 8 10 12 11 9 11 12 12 13 15 19 21 19 20 25 27 26 26 26 25 25 25 25 25 25 25 25 24
8 9 10 9 9 8 8 8 7 7 6 7 7 6 7 7 7 8 15 17 15 10 10 12 12 14 18 18 16 21 25 25 25 25 26 27 27 27 26 25 25 24 23
6 9 10 10 11 10 10 9 8 8 8 8 8 7 8 7 9 8 12 16 17 15 13 12 11 11 15 15 18 24 25 24 24 24 25 26 26 26 26 24 23 22 22
4 7 9 10 10 12 13 12 8 8 8 9 9 8 8 9 9 10 12 15 17 16 13 12 9 9 14 15 17 25 24 24 24 23 23 24 25 24 23 22 22 22 21
6 9 10 11 12 13 13 11 7 9 8 9 11 11 9 10 9 10 10 12 16 16 14 12 9 9 11 15 19 25 19 24 24 24 23 22 21 21 21 22 23 23 23
7 10 10 10 11 12 12 10 8 9 9 10 11 12 11 11 10 10 10 10 11 17 18 14 11 9 11 14 20 18 16 22 25 24 23 21 21 21 22 22 23 24 23
9 8 8 8 9 10 10 8 9 10 10 11 11 12 13 12 11 11 11 11 11 14 16 14 13 13 13 14 21 18 17 24 23 23 23 22 22 22 23 24 24 24 24
7 7 7 8 8 9 8 9 11 10 12 13 13 14 16 15 13 12 11 11 12 12 16 16 14 12 12 13 13 14 16 13 15 21 22 22 23 24 25 25 25 25 24
7 7 7 8 9 9 9 10 12 13 12 15 16 16 17 15 15 13 12 12 12 13 15 19 15 12 12 11 12 12 12 12 11 20 23 23 25 26 26 26 26 25 25
8 7 7 8 9 10 11 11 12 13 15 16 17 16 17 15 15 13 13 13 13 14 13 15 15 12 10 10 11 12 12 10 12 16 20 22 23 25 26 26 26 26 25
7 8 8 9 10 10 11 12 13 14 15 16 15 14 14 14 14 14 13 14 14 13 13 12 13 12 11 8 8 9 12 9 11 12 15 17 20 22 23 24 25 26 25
8 8 8 9 10 9 10 12 13 13 12 11 10 11 12 15 19 16 13 11 11 11 11 11 13 13 11 8 8 8 12 11 11 10 9 9 9 9 11 17 22 23 23
7 7 8 9 10 10 17 22 18 9 8 8 9 9 11 13 18 22 24 23 20 13 11 12 12 12 11 10 10 10 10 11 8 4 5 9 9 10 10 10 17 21 21
7 8 9 9 10 12 19 21 21 11 6 8 9 9 10 12 17 11 19 23 18 21 21 15 14 13 14 12 12 13 12 12 12 8 8 10 7 10 10 12 20 21 21
7 7 9 9 9 12 17 19 19 8 6 8 8 9 10 12 15 17 14 9 10 12 16 12 12 13 14 13 13 13 13 12 12 10 8 7 6 7 9 9 17 20 21
8 8 8 8 8 10 15 17 17 5 7 8 8 9 11 11 22 25 11 9 11 11 15 18 20 19 20 19 15 9 7 8 10 7 5 6 5 6 7 8 12 19 21
8 8 8 7 7 8 13 15 15 5 7 7 7 8 15 18 23 22 10 9 12 11 8 11 14 16 13 14 16 8 6 8 7 6 4 4 4 4 4 4 7 9 12
Wind_Direction
25 349 336 333 331 329 326 325 325 322 322 323 324 327 321 317 314 313 314 316 317 316 313 310 307 304 300 296 292 288 284 280 276 273 272 271 272 273 274 277 278 273 253
226 279 301 312 318 323 323 322 320 316 315 316 316 318 314 310 309 308 310 311 312 313 312 309 306 303 300 296 291 286 282 278 274 270 267 266 267 268 271 272 277 275 261
228 249 271 293 308 319 322 323 318 320 321 321 315 313 311 307 306 306 307 305 304 308 308 307 305 302 299 297 292 286 280 275 272 268 263 262 263 265 267 269 272 275 267
236 246 262 283 303 311 317 315 310 313 308 307 305 307 307 306 304 304 301 299 299 300 301 304 302 300 298 297 294 288 280 274 270 266 260 258 259 261 264 266 268 273 270
242 251 264 282 297 302 308 315 327 306 307 309 308 302 303 303 299 299 296 295 294 295 296 299 300 300 297 294 293 291 283 275 270 265 258 254 255 257 261 264 266 270 271
247 256 269 282 293 294 295 296 298 298 293 297 310 311 299 296 293 288 288 293 294 295 295 295 294 294 295 295 294 293 289 279 273 268 258 253 252 255 258 261 264 267 272
250 262 273 285 289 279 279 289 294 299 296 295 305 312 303 288 284 286 286 290 292 293 293 294 293 291 290 294 297 297 294 286 277 272 264 256 252 253 255 259 262 264 270
254 263 266 272 279 278 285 291 293 289 294 311 305 316 312 307 302 311 294 292 291 294 296 297 295 291 288 288 290 295 296 291 284 277 273 265 258 255 254 257 260 262 265
261 265 272 273 275 267 270 279 282 278 292 293 268 279 304 307 315 302 303 298 291 293 294 295 296 293 292 290 290 292 292 290 283 279 277 272 266 259 257 257 258 261 263
259 265 271 273 271 266 260 273 290 274 280 294 292 257 260 282 300 307 307 298 296 299 298 301 299 296 293 290 290 293 293 289 283 279 276 273 269 264 260 257 257 260 262
255 264 270 269 264 262 263 267 273 270 264 273 283 284 284 282 269 286 303 308 307 299 299 299 297 295 294 291 293 294 294 291 285 279 274 271 268 265 261 259 256 260 263
252 260 266 262 261 262 263 265 262 262 262 266 273 274 278 279 288 285 293 300 304 304 303 300 296 296 297 297 302 302 301 297 293 283 275 270 267 264 262 262 262 265 267
243 250 258 258 260 262 265 265 259 259 259 263 266 271 270 269 273 277 284 293 298 300 299 295 288 297 301 305 304 304 304 302 298 292 281 271 266 264 266 268 270 273 277
238 249 253 255 258 264 270 267 263 262 265 262 272 270 272 273 269 267 273 285 296 299 297 293 295 289 296 300 300 306 305 304 301 295 287 278 271 269 268 269 271 275 279
244 248 248 252 260 264 264 264 262 263 266 268 269 270 270 272 268 265 264 265 278 294 297 298 297 286 295 296 299 301 300 300 297 292 288 284 279 272 268 268 268 271 275
243 249 251 253 258 262 263 259 264 266 267 271 272 270 271 272 270 267 264 263 262 272 285 290 291 290 292 295 299 303 301 299 299 295 288 283 278 272 267 264 264 265 268
237 241 247 252 257 261 260 262 266 269 269 274 276 274 274 274 274 271 266 265 266 267 277 285 286 286 284 287 292 293 292 289 290 291 285 279 274 270 267 264 261 262 262
235 241 248 256 262 266 264 264 271 277 273 276 278 278 278 279 276 274 268 266 269 269 271 282 286 287 282 283 286 288 295 295 291 289 283 277 272 267 263 261 259 258 258
236 245 251 259 264 268 270 269 268 272 273 274 277 278 278 277 276 273 267 268 271 274 274 279 287 288 284 281 284 288 288 285 287 285 283 278 272 266 261 258 255 255 254
237 250 256 261 265 268 271 274 273 271 272 275 276 273 273 274 274 270 270 267 270 274 278 282 287 289 287 279 276 289 294 288 287 288 282 275 270 268 262 258 254 250 249
242 250 261 268 271 273 272 269 269 270 274 281 278 273 275 287 289 287 283 277 276 279 286 288 289 290 289 288 285 286 290 294 289 276 276 278 279 275 269 262 254 250 246
242 253 260 268 275 279 290 297 298 285 285 284 284 283 287 291 295 300 300 299 296 296 296 292 293 290 288 284 282 281 283 287 290 282 306 294 285 276 265 254 251 250 245
240 253 261 266 271 281 296 300 304 308 288 284 285 289 299 301 307 292 291 294 294 296 299 296 291 288 286 282 278 276 270 267 267 273 294 288 272 268 262 253 250 245 243
236 250 261 266 271 283 299 305 308 316 285 281 281 282 286 288 293 293 286 278 267 275 286 287 279 280 279 276 266 264 266 268 268 264 251 267 271 264 264 252 249 242 239
236 245 255 262 268 283 301 304 310 293 287 283 282 287 297 292 301 313 321 300 294 290 296 302 303 303 303 304 299 286 273 270 277 273 231 241 268 270 262 252 242 238 235
233 245 255 256 264 274 297 306 310 290 294 291 289 294 313 316 320 332 331 315 309 306 303 308 308 307 302 298 298 288 267 263 268 275 244 252 270 284 278 242 218 220 226
Height
1561 1558 1554 1550 1546 1541 1537 1534 1530 1527 1523 1520 1517 1514 1511 1508 1505 1501 1496 1492 1488 1484 1481 1477 1474 1471 1469 1467 1466 1465 1466 1466 1466 1467 1468 1469 1471 1474 1477 1481 1484 1488 1492
1557 1553 1550 1546 1542 1538 1534 1530 1526 1522 1519 1516 1513 1510 1507 1504 1500 1496 1492 1487 1482 1478 1474 1470 1467 1464 1461 1459 1457 1456 1456 1457 1458 1459 1460 1461 1463 1465 1468 1472 1476 1480 1484
1553 1549 1546 1542 1538 1534 1530 1526 1522 1519 1515 1512 1508 1505 1502 1499 1495 1491 1487 1482 1477 1472 1467 1463 1459 1456 1453 1450 1448 1447 1447 1448 1449 1451 1452 1453 1455 1457 1460 1463 1467 1471 1476
1549 1545 1542 1538 1534 1530 1526 1522 1518 1514 1511 1507 1503 1500 1497 1494 1490 1486 1481 1477 1472 1466 1461 1456 1452 1448 1445 1441 1439 1438 1438 1439 1440 1442 1444 1445 1447 1449 1451 1455 1459 1463 1467
1545 1541 1538 1534 1530 1526 1522 1518 1514 1511 1506 1503 1499 1495 1492 1489 1485 1481 1476 1471 1466 1461 1455 1449 1445 1440 1436 1433 1431 1429 1428 1429 1431 1433 1435 1437 1439 1441 1443 1446 1450 1454 1459
1541 1537 1534 1530 1526 1522 1518 1515 1511 1507 1504 1499 1495 1491 1487 1483 1479 1475 1470 1466 1461 1455 1450 1444 1437 1432 1428 1425 1422 1420 1419 1420 1421 1423 1426 1428 1430 1433 1435 1438 1441 1446 1450
1536 1533 1530 1526 1522 1518 1514 1510 1506 1503 1499 1496 1491 1485 1481 1478 1474 1469 1465 1460 1455 1450 1444 1438 1432 1426 1421 1417 1414 1412 1411 1411 1412 1414 1416 1419 1422 1425 1427 1430 1433 1437 1442
1532 1529 1525 1521 1518 1514 1510 1507 1503 1498 1495 1493 1489 1482 1476 1472 1468 1464 1459 1453 1449 1444 1438 1432 1426 1420 1416 1411 1407 1405 1403 1402 1403 1405 1407 1410 1413 1416 1420 1423 1426 1429 1434
1527 1524 1520 1517 1513 1510 1506 1503 1499 1495 1491 1488 1487 1483 1476 1467 1462 1456 1452 1447 1443 1438 1432 1427 1421 1415 1410 1406 1402 1399 1397 1397 1397 1398 1399 1401 1404 1408 1411 1415 1418 1422 1426
1523 1519 1516 1512 1509 1505 1502 1498 1495 1491 1487 1483 1481 1478 1475 1469 1462 1451 1445 1440 1436 1432 1427 1421 1416 1410 1404 1400 1396 1393 1392 1391 1391 1391 1392 1394 1397 1400 1404 1407 1411 1414 1418
1518 1515 1511 1508 1504 1500 1497 1493 1490 1486 1483 1479 1475 1471 1468 1464 1459 1453 1441 1433 1427 1423 1420 1416 1410 1405 1399 1395 1391 1388 1387 1386 1386 1386 1387 1388 1391 1393 1397 1400 1404 1407 1411
1513 1509 1506 1502 1499 1495 1492 1488 1484 1480 1477 1473 1470 1466 1462 1457 1452 1447 1439 1430 1422 1415 1412 1409 1405 1400 1395 1391 1386 1383 1381 1380 1380 1380 1381 1383 1385 1387 1390 1393 1396 1400 1403
1507 1504 1501 1497 1493 1490 1486 1482 1478 1474 1471 1467 1463 1459 1455 1451 1447 1442 1435 1427 1418 1410 1405 1401 1399 1395 1391 1386 1382 1378 1376 1374 1373 1373 1375 1376 1378 1380 1382 1384 1387 1390 1394
1501 1498 1495 1491 1488 1484 1480 1476 1472 1468 1464 1460 1456 1452 1448 1444 1440 1435 1430 1423 1413 1404 1399 1395 1392 1389 1385 1381 1376 1373 1370 1368 1367 1366 1367 1369 1370 1372 1374 1376 1379 1381 1385
1495 1492 1489 1485 1482 1478 1475 1471 1466 1462 1458 1453 1449 1445 1441 1436 1432 1428 1423 1418 1413 1402 1392 1388 1385 1381 1379 1375 1371 1368 1364 1361 1360 1360 1360 1361 1363 1365 1368 1370 1372 1374 1378
1489 1487 1483 1480 1476 1473 1469 1465 1460 1456 1451 1447 1443 1438 1433 1428 1423 1419 1414 1410 1406 1400 1389 1382 1378 1375 1372 1369 1365 1362 1358 1355 1354 1353 1354 1355 1357 1359 1361 1363 1366 1368 1371
1484 1481 1477 1474 1470 1466 1463 1458 1454 1450 1445 1441 1436 1431 1425 1420 1415 1410 1406 1402 1398 1393 1385 1376 1373 1368 1365 1361 1358 1355 1351 1348 1346 1346 1347 1349 1350 1352 1354 1356 1358 1361 1364
1478 1475 1472 1468 1464 1460 1456 1452 1448 1443 1439 1434 1429 1423 1417 1412 1407 1402 1398 1394 1390 1385 1379 1371 1365 1362 1358 1355 1351 1347 1344 1341 1339 1339 1339 1340 1342 1343 1345 1347 1350 1353 1357
1472 1469 1466 1462 1458 1454 1450 1446 1441 1437 1432 1427 1422 1415 1410 1404 1399 1395 1391 1386 1382 1377 1373 1366 1359 1355 1351 1348 1344 1340 1337 1334 1332 1331 1331 1331 1333 1335 1337 1339 1342 1345 1349
1466 1463 1460 1457 1453 1448 1443 1439 1435 1431 1426 1421 1415 1409 1403 1398 1392 1387 1383 1379 1375 1370 1365 1360 1354 1348 1344 1341 1338 1333 1329 1326 1324 1323 1322 1323 1324 1326 1328 1331 1334 1338 1342
1460 1458 1454 1451 1447 1442 1437 1433 1429 1425 1420 1415 1409 1404 1398 1392 1387 1382 1378 1373 1368 1363 1358 1353 1347 1342 1337 1334 1331 1327 1323 1319 1316 1316 1315 1315 1316 1317 1318 1322 1326 1330 1335
1454 1451 1448 1445 1441 1437 1432 1427 1425 1421 1416 1410 1404 1398 1392 1386 1380 1375 1371 1367 1363 1358 1352 1346 1340 1335 1330 1327 1324 1321 1318 1314 1311 1310 1309 1308 1309 1309 1311 1315 1318 1323 1328
1448 1445 1443 1439 1435 1431 1426 1422 1419 1416 1410 1405 1399 1392 1386 1380 1375 1369 1364 1359 1355 1351 1347 1341 1334 1328 1323 1320 1317 1314 1311 1309 1305 1304 1304 1300 1302 1302 1305 1308 1312 1316 1321
1441 1440 1437 1434 1429 1425 1421 1417 1414 1410 1405 1400 1394 1388 1382 1375 1370 1364 1357 1352 1348 1343 1338 1332 1327 1321 1316 1313 1310 1308 1305 1302 1299 1298 1299 1295 1295 1297 1299 1301 1305 1309 1315
1435 1433 1431 1428 1424 1420 1416 1411 1409 1404 1400 1395 1390 1384 1378 1372 1366 1360 1354 1347 1341 1336 1330 1325 1320 1314 1309 1306 1303 1302 1299 1298 1294 1292 1294 1293 1291 1292 1293 1295 1298 1303 1308
1428 1427 1425 1423 1419 1415 1411 1407 1404 1400 1395 1390 1385 1380 1374 1369 1363 1357 1350 1343 1336 1330 1323 1317 1311 1306 1302 1298 1296 1294 1292 1291 1290 1288 1287 1289 1288 1290 1290 1290 1294 1298 1302